Location: B�rgermoos
(47.6500°N, 9.0667°E)
Time: 05:04:22
(UTC+00:00)

Cosmos 1674 - Pass Details

Date: 18 September 2020
Orbit: 494 x 518 km, 82.5° (Epoch: 29 October)

Event Time Altitude Azimuth Distance (km) Brightness Sun altitude
Rises 19:02:48 0° 356° (N) 2,654 6.7 -16.2°
Reaches altitude 10° 19:05:02 10° 3° (N) 1,762 5.6 -16.6°
Maximum altitude 19:08:44 43° 76° (ENE) 735 3.1 -17.2°
Enters shadow 19:09:21 40° 104° (ESE) 781 3.1 -17.3°
